NUSAT-14 (HEDY) (46831 NORAD) Tracking and Keplerian Element Data
This shows tracking and keplerian element data for the satellite.
Feedback or suggestion? Click here.
Element | Value |
Catalog | 46831 |
Name | NUSAT-14 (HEDY) |
Epoch Orbit | 1161 |
Epoch Day | 21.06264956 |
Epoch Year | 2021 |
RAAN | 97.7499 |
Inclination | 97.26 |
Eccentricity | 0.0009228 |
Argument of Perigee | 358.9114 |
Mean Anonmoly | 95.6294 |
Mean Motion | 15.31574255 |
Decay Rate | 1.362E-05 |
L1 | 1 46831U 20079E 21021.06264956 .00001362 00000-0 47090-4 0 9990 |
L2 | 2 46831 97.2600 97.7499 0009228 358.9114 95.6294 15.31574255 11617 |
Live tracking and technical data element details for NUSAT-14 (HEDY) (NORAD 46831). NUSAT-14 (HEDY) can be tracked NOW for your location showing map with azimuth and elevation plus other details from your city location.
Track the satellite on the map from your city or location and see movement details for azimuth, elevation, latitude, longitude, range, height, and movement on the map or in text.
IsCatalogInMostPopularTable: catalog: 46831, numindb: 36
Update: records affected: 1
GetName: 46831 NUSAT-14 (HEDY)
Hit Count: updated at: Fri, 22 Jan 2021 19:44:22 GMT